STARLINK-1800, 46700

Orbit data source: Space-Track

STARLINK-1800, 46700 is a payload satellite owned by SpaceX/Seattle (US) in LEO that was launched on Sun, 18 Oct 2020 UTC via an FALCON 9 launch vehicle from the Air Force Eastern Test Range (AFETR). Payload-class satellites include a variety of spacecraft equipped with specific instruments for various scientific and technological missions. These include communications satellites like Starlink; space stations such as the ISS; scientific satellites like the Hubble; Earth observation satellites from companies like Planet Labs, Umbra, and HawkEye 360; GPS; miniature CubeSats for education and research; and military/defense satellites.

Loading next visibility...
Identifier
46700, 2020-073AG
Orbit
LEO
Country
Flag of USUS
Related business
Manufacturer
SpaceX/Seattle
Mission
Partially operational Commercial Communications
Bus & Motor
STARLINK, Unknown motor
Mass
260 kg wet, ~248 kg dry
Launch date (UTC)
2020-10-18 (5 years ago)
Launch vehicle
FALCON 9
Launch site
Air Force Eastern Test Range (AFETR)
Object type
Payload
Rocket body
Debris
Shape & HBR
Box + 1 Pan, 10.1 m
Radar Cross Section
13.562 m², Large (>1 m²)

Expand to show TLE details & history
Last TLE update: 4 hours ago

TLE from 4 hours ago
0 STARLINK-1800
1 46700U 20073AG  25308.64147958  .00108634  00000-0  29373-2 0  9999
2 46700  53.0515  93.5291 0002929 286.9104  73.1577 15.36879999278136
Epoch: 2025-11-04T15:23Z
TLE epoch observation values (Epoch: 2025-11-04T15:23:43.835Z)
Latitude
-0.00003°
Longitude
178.47085°
Altitude
455.653 km
Speed
7.641 km/s
True Right ascension
06h 14m 06s
True Declination
0° 00' 00"
Sunlit
Object was in full shadow at epoch
Visualization orbit readout
Latitude
Unknown
Longitude
Unknown
Altitude
Unknown
Speed
Unknown
Apparent Right ascension
Unknown
Apparent Declination
Unknown
Sunlit
N/A
Visualization observer readout
Local Sidereal Time
15:39:46
Azimuth
Unknown
Elevation
Unknown
Doppler factor
Unknown
Orbital elements
Apogee altitude
457.618 km
Perigee altitude
453.615 km
Semi-major axis
6,833.754 km
Eccentricity
0.00029
Inclination
53.0515°
RAAN
93.5291°
Arg. of periapsis
286.9104°
True anomaly
73.18983°
Mean anomaly
73.1577°
Eccentric anomaly
73.17376°
Mean motion
3.84197 °/min
Orbital period
93.7 mins
BSTAR
0.0029373
Loading maneuver chart data...
Computing Atmospheric mass density...
Loading historical data...
Loading historical data...
Loading historical data...
Loading historical data...
Loading historical data...
Loading historical data...
Loading historical data...

Documentation

Showing up to 5 results
|